This is the latest recevied weather packets stored in our database for station/object OE3CJB-13. If no packets are shown the sender has not sent any weather packets the latest 10 day(s).
| Time | Temp. | Humidity | Pressure | Rain* | Wind** | Luminosity | Snow |
|---|---|---|---|---|---|---|---|
| 1787480166 | 22.78° C | 35% | 1200.3 hPa | 0 mm | - | - | - |
| 1787479242 | 22.22° C | 37% | 1199.6 hPa | 0 mm | - | - | - |
| 1787478327 | 22.22° C | 39% | 1199.8 hPa | 0 mm | - | - | - |
| 1787477421 | 21.67° C | 41% | 1199.8 hPa | 0 mm | - | - | - |
| 1787476551 | 21.67° C | 43% | 1199.9 hPa | 0 mm | - | - | - |
| 1787475641 | 20.56° C | 47% | 1199.1 hPa | 0 mm | - | - | - |
| 1787474727 | 20.56° C | 50% | 1199.2 hPa | 0 mm | - | - | - |
| 1787473816 | 20.56° C | 51% | 1198.4 hPa | 0 mm | - | - | - |
| 1787472953 | 19.44° C | 57% | 1198.4 hPa | 0 mm | - | - | - |
| 1787472047 | 18.89° C | 61% | 1198.4 hPa | 0 mm | - | - | - |
| 1787471127 | 18.33° C | 63% | 1197.7 hPa | 0 mm | - | - | - |
| 1787470265 | 17.78° C | 67% | 1197.6 hPa | 0 mm | - | - | - |
| 1787469352 | 17.22° C | 70% | 1195.3 hPa | 0 mm | - | - | - |
| 1787468441 | 16.67° C | 73% | 1196.2 hPa | 0 mm | - | - | - |
| 1787467527 | 16.11° C | 74% | 1196.3 hPa | 0 mm | - | - | - |
| 1787466616 | 16.11° C | 77% | 1196.2 hPa | 0 mm | - | - | - |
| 1787465752 | 15.56° C | 79% | 1195.6 hPa | 0 mm | - | - | - |
| 1787464867 | 15° C | 80% | 1195.5 hPa | 0 mm | - | - | - |
| 1787463927 | 14.44° C | 83% | 1195.4 hPa | 0 mm | - | - | - |
| 1787463016 | 13.89° C | 85% | 1196.9 hPa | 0 mm | - | - | - |
| 1787462156 | 13.33° C | 85% | 1196.1 hPa | 0 mm | - | - | - |
| 1787461267 | 12.78° C | 84% | 1195.3 hPa | 0 mm | - | - | - |
| 1787460328 | 12.22° C | 83% | 1193 hPa | 0 mm | - | - | - |
| 1787459416 | 12.22° C | 82% | 1192.9 hPa | 0 mm | - | - | - |
| 1787458552 | 12.22° C | 81% | 1193.4 hPa | 0 mm | - | - | - |
* Rain latest hour (hover to see other rain measurements)
** Current wind speed in m/s (hover to see current wind gust speed)